CST,Max TemperatureF,Mean TemperatureF,Min TemperatureF,Max Dew PointF,MeanDew PointF,Min DewpointF,Max Humidity, Mean Humidity, Min Humidity, Max Sea Level PressureIn, Mean Sea Level PressureIn, Min Sea Level PressureIn, Max VisibilityMiles, Mean VisibilityMiles, Min VisibilityMiles, Max Wind SpeedMPH, Mean Wind SpeedMPH, Max Gust SpeedMPH,PrecipitationIn, CloudCover, Events, WindDirDegrees
2013-12-1,71,64,57,57,55,54,89,76,57,30.28,30.16,30.02,10,10,10,14,6,18,0.00,4,,177
2013-12-2,82,68,53,56,45,35,89,55,19,30.01,29.85,29.74,10,10,10,14,6,21,0.00,0,,245
2013-12-3,84,65,46,45,40,34,77,44,18,29.76,29.72,29.66,10,10,10,13,4,,0.00,0,,214
2013-12-4,77,67,57,63,55,41,90,65,39,29.86,29.79,29.71,10,10,9,14,7,,0.00,0,,146
2013-12-5,64,47,30,61,33,20,94,69,47,30.24,30.08,29.81,10,10,7,20,12,28,0.01,8,Snow,332
2013-12-6,33,30,26,30,26,20,89,82,74,30.58,30.31,30.08,10,10,10,21,13,29,0.06,7,,327
2013-12-7,27,25,23,23,20,17,88,79,74,30.62,30.48,30.27,10,10,7,14,10,22,0.00,7,,337
2013-12-8,43,34,26,36,31,23,93,86,76,30.37,30.21,30.03,10,9,4,8,2,,0.00,7,,132
2013-12-9,37,35,32,36,32,26,96,88,75,30.51,30.25,30.08,10,5,0,15,7,20,0.00,8,Fog,356
2013-12-10,45,35,25,25,20,17,79,60,34,30.63,30.53,30.46,10,10,10,14,8,,0.00,0,,314
2013-12-11,55,42,28,30,25,22,78,56,30,30.68,30.53,30.43,10,10,10,9,2,,0.00,0,,329
2013-12-12,52,41,30,32,28,25,79,63,43,30.71,30.59,30.41,10,10,10,8,5,,0.00,0,,4
2013-12-13,50,46,43,48,42,32,100,86,60,30.38,30.02,29.87,10,5,1,10,5,,0.11,8,,159
2013-12-14,48,42,37,46,38,28,93,79,54,30.45,30.10,29.83,10,8,1,23,8,30,0.01,3,,304
2013-12-15,61,48,34,33,28,25,73,52,26,30.49,30.42,30.36,10,10,10,10,5,,0.00,0,,243
2013-12-16,70,52,35,35,31,28,76,47,23,30.38,30.33,30.26,10,10,10,12,5,,0.00,0,,164
2013-12-17,73,56,39,37,33,31,76,49,21,30.40,30.36,30.31,10,10,10,9,3,,0.00,0,,215
2013-12-18,71,56,42,50,44,34,80,64,44,30.36,30.26,30.13,10,10,10,18,4,20,0.00,0,,157
2013-12-19,75,65,55,62,56,50,88,75,53,30.10,29.95,29.81,10,10,10,24,11,34,0.00,5,,154
2013-12-20,73,60,44,64,59,41,89,78,69,29.93,29.82,29.69,10,10,4,20,11,26,0.00,8,,131
2013-12-21,66,52,39,54,43,37,93,81,48,29.90,29.72,29.61,10,10,7,24,10,31,0.35,6,,305
2013-12-22,50,44,36,40,32,25,87,65,41,30.48,30.18,29.92,10,10,10,21,10,25,0.00,2,,317
2013-12-23,55,42,28,30,25,21,82,58,28,30.65,30.57,30.48,10,10,10,8,5,,0.00,0,,334
2013-12-24,57,44,30,32,28,24,85,58,28,30.62,30.51,30.35,10,10,10,14,4,,0.00,0,,138
2013-12-25,61,49,37,45,38,32,93,74,54,30.52,30.38,30.25,10,10,10,16,4,21,0.00,5,,309
2013-12-26,57,46,35,37,34,31,89,69,44,30.54,30.49,30.43,10,10,10,9,5,,0.00,0,,320
2013-12-27,59,48,37,39,37,34,86,67,41,30.55,30.48,30.43,10,10,10,8,1,,0.00,0,,4
2013-12-28,63,51,39,42,38,35,89,66,43,30.41,30.24,30.09,10,10,10,10,3,,0.00,2,,146
2013-12-29,57,45,33,46,40,25,87,76,67,30.39,30.17,29.97,10,10,10,26,9,33,0.00,7,,296
2013-12-30,45,38,30,27,23,20,75,56,38,30.50,30.41,30.27,10,10,10,18,10,21,0.00,2,,316
2013-12-31,55,44,33,29,26,22,78,55,30,30.56,30.46,30.33,10,10,10,8,3,,0.00,0,,131